Theta_e
324 323 323 326 328 328 329 330 331 333 334 333 332 331 331 332 332 331 334 337 334 330 328 323 318 314 313 320 330 332 328 323 320 320 326 330 330 326 326 330 334 334 335 335 334 333 333 335 338 338 335 331 333 335 336 337 336 335 335 335 336 336 335
317 318 320 323 324 325 327 329 330 330 332 334 335 333 332 331 330 328 331 335 336 334 331 325 321 317 312 316 327 333 330 325 321 319 323 331 333 329 323 325 332 334 334 335 335 334 333 333 337 338 335 333 332 331 333 336 337 335 335 335 336 336 335
314 315 316 317 319 320 323 327 329 329 330 332 333 334 333 333 330 328 329 333 335 335 333 327 322 321 318 316 320 327 329 326 322 319 321 327 332 332 326 322 325 329 331 333 334 334 332 330 332 337 337 333 332 331 330 333 335 337 337 336 336 336 335
314 315 315 314 316 317 318 322 324 327 329 329 329 329 331 331 331 330 330 333 336 337 335 331 325 321 320 320 320 320 323 323 321 320 322 324 327 330 329 323 319 320 323 324 327 329 329 327 327 332 335 333 333 333 332 332 334 336 337 336 336 336 336
314 314 315 314 315 315 316 319 320 322 326 327 326 327 328 328 330 333 335 336 339 339 337 335 330 324 320 321 323 320 318 320 321 322 323 325 326 326 327 325 319 316 317 318 323 327 330 329 327 329 332 332 336 338 337 335 334 336 337 337 336 336 336
314 313 314 313 314 314 316 318 319 321 323 324 325 325 326 327 328 334 338 338 339 340 339 337 333 329 324 322 324 322 319 320 323 325 324 325 326 325 326 327 323 319 318 320 324 328 332 331 329 331 330 331 337 339 340 339 336 336 337 337 336 336 336
315 314 313 314 316 320 322 322 320 319 320 321 324 325 326 329 330 334 337 337 339 340 340 339 336 332 327 325 328 327 321 319 322 326 327 327 326 326 328 330 327 323 322 324 326 327 332 333 331 331 332 333 337 338 339 340 338 337 337 337 337 337 336
316 315 313 314 320 327 330 330 328 324 320 321 326 329 331 333 335 335 333 332 336 340 340 340 340 336 330 327 330 331 328 323 323 325 327 328 328 327 330 332 330 326 324 325 328 329 331 333 333 331 330 333 338 338 338 339 339 337 336 336 337 338 338
316 316 314 313 319 327 333 334 334 333 330 329 332 335 335 336 336 336 332 326 328 336 340 340 340 339 337 332 330 331 332 329 326 325 326 328 328 328 330 332 332 330 327 324 328 331 331 332 334 332 328 328 335 339 339 339 339 338 336 336 336 337 339
317 317 316 314 315 323 330 333 334 335 335 335 335 336 336 335 332 331 332 328 328 334 339 340 339 340 340 338 334 332 333 334 330 328 327 328 327 328 328 329 330 331 330 326 326 331 333 332 332 333 330 328 329 336 339 339 338 337 337 336 335 336 338
319 319 319 316 313 315 323 330 334 335 335 337 337 336 336 335 332 328 329 331 331 333 336 338 338 340 340 340 338 335 334 335 334 331 330 329 328 328 327 326 326 328 329 329 327 329 332 333 332 332 333 332 329 330 335 338 338 338 337 337 336 336 337
319 320 320 320 317 313 314 321 330 335 336 336 337 337 336 336 335 331 328 330 330 330 334 337 337 338 339 339 339 338 336 334 335 333 332 331 330 329 327 325 324 323 325 328 330 329 330 333 334 333 333 334 332 329 329 333 337 338 337 337 336 336 336
318 319 320 321 321 320 316 314 320 330 336 337 336 336 336 336 336 334 330 329 330 330 332 334 334 335 338 339 339 339 338 336 334 334 332 332 332 331 329 327 324 322 322 325 328 330 330 331 333 334 333 332 334 333 329 330 334 336 337 338 338 337 337
318 318 319 320 321 322 322 318 315 319 328 334 336 335 335 336 337 336 333 330 329 330 330 331 332 333 335 339 340 339 339 338 336 334 333 333 333 333 332 331 328 325 324 324 325 327 330 330 330 332 331 329 331 335 333 330 332 335 337 339 339 337 337
318 318 318 319 319 320 321 321 319 316 317 325 333 335 335 335 336 337 337 333 329 329 330 330 329 330 333 336 338 338 338 338 337 336 334 333 333 334 334 334 332 329 328 327 324 325 328 329 329 331 331 328 326 331 335 332 331 335 338 339 339 338 338
317 318 318 319 319 320 320 321 321 320 317 316 322 331 336 337 336 336 336 337 333 328 328 329 328 329 332 333 335 336 337 338 337 337 336 334 334 334 334 334 334 332 331 330 327 325 326 328 330 332 333 330 324 324 332 335 332 333 337 337 339 339 338
316 316 317 318 319 320 320 320 321 321 321 318 317 322 330 335 337 336 336 338 336 331 328 328 327 328 330 331 332 334 335 336 337 337 337 336 335 335 334 334 335 334 333 333 331 328 327 328 332 335 335 334 327 320 328 337 334 332 335 336 337 339 339
316 316 316 317 318 319 319 320 320 321 322 322 320 319 323 329 334 336 336 337 336 335 332 328 328 328 328 329 332 334 335 335 336 336 337 338 337 336 335 334 334 333 333 334 334 332 330 329 333 337 338 337 332 323 327 336 337 335 336 336 336 338 339
316 316 316 316 317 318 318 319 320 321 321 322 323 323 322 325 328 332 334 335 336 336 335 332 331 330 328 329 331 332 334 335 335 336 337 337 337 337 336 336 335 334 333 333 334 335 334 332 333 337 339 338 336 333 332 336 337 337 337 337 337 338 339
315 316 316 316 317 317 318 319 320 320 321 322 323 325 325 324 325 329 332 333 334 336 335 335 334 333 332 332 331 329 331 334 335 335 336 336 337 337 337 337 336 336 335 334 334 336 337 336 335 337 338 338 338 339 338 337 338 338 338 338 339 339 338
315 315 315 316 316 317 318 319 319 320 320 321 322 323 325 326 325 327 331 333 333 334 335 335 334 334 334 335 332 328 328 331 333 333 333 335 337 337 337 336 336 336 336 336 336 336 337 338 337 337 338 338 339 340 340 339 339 339 339 338 339 339 339
315 315 316 316 316 317 317 318 319 320 320 321 321 322 324 326 327 328 330 332 332 332 334 335 334 334 334 334 333 330 328 329 330 331 331 333 335 337 337 337 336 336 336 337 338 338 336 336 337 337 337 337 338 340 341 340 339 339 340 339 338 339 340
315 316 316 316 316 317 317 317 318 319 320 321 322 322 323 325 327 328 329 332 332 332 334 335 334 333 332 332 332 330 329 329 329 329 329 330 333 335 337 337 336 335 335 335 337 337 336 335 335 335 335 335 336 338 340 341 340 339 341 341 339 338 340
316 316 317 317 317 316 317 317 317 318 319 320 321 322 322 323 325 327 328 330 332 333 334 334 334 333 332 332 331 330 329 329 328 327 327 328 330 332 335 336 336 336 335 334 334 336 336 336 336 335 334 334 335 336 338 341 341 340 341 341 340 338 337
316 317 318 318 318 317 317 317 317 317 319 320 321 322 322 323 324 326 327 329 330 331 332 333 334 333 333 331 330 329 329 330 329 327 327 327 328 329 332 334 335 335 334 333 332 334 335 335 335 335 334 335 336 337 338 340 341 341 341 341 341 339 336
317 318 319 319 318 318 317 317 317 317 318 319 320 321 322 323 323 324 326 328 328 329 330 331 331 331 332 331 330 329 329 330 329 327 327 326 326 326 328 331 333 334 334 333 332 333 333 332 332 333 335 336 336 337 339 340 340 341 341 341 341 340 338
318 319 319 319 319 318 317 317 317 317 317 318 319 320 322 323 323 324 325 327 328 328 329 329 328 327 328 329 330 330 329 330 330 328 326 324 323 324 326 328 330 333 334 333 332 333 333 331 329 331 334 336 336 336 337 339 340 341 340 340 341 341 339
318 319 319 319 319 318 318 318 317 317 318 318 319 320 320 322 322 322 324 326 327 328 328 329 328 327 327 328 329 330 329 330 330 329 326 322 320 322 323 325 327 331 333 333 331 332 331 329 328 329 331 333 334 334 332 332 336 339 340 340 341 341 340
319 320 319 318 318 318 318 318 317 317 317 318 319 319 320 321 322 323 323 324 325 326 326 327 329 330 330 328 327 328 328 328 328 327 326 323 321 321 322 324 326 330 333 333 331 329 329 327 328 329 330 331 332 332 330 327 330 335 339 340 340 341 341
320 320 318 318 318 318 318 318 318 317 318 318 319 319 320 321 322 322 322 323 324 324 325 326 327 328 329 327 326 328 328 327 325 326 325 324 323 322 322 323 324 327 332 334 333 331 328 327 327 328 330 331 329 328 328 326 326 330 335 336 337 340 341
320 320 319 318 318 318 318 318 318 318 318 318 318 319 320 321 323 323 322 322 323 323 324 325 324 325 325 324 325 327 327 327 325 324 325 324 323 322 322 322 323 327 331 333 333 331 329 328 327 328 330 331 329 328 327 326 326 330 333 333 333 337 340
319 319 319 318 318 319 319 318 318 318 318 318 317 318 319 320 322 323 323 324 324 323 324 325 326 326 326 325 324 325 327 328 326 324 325 325 324 323 323 324 325 327 331 333 331 329 329 330 328 329 330 330 329 328 326 325 326 330 333 333 331 332 336
319 318 317 318 319 319 319 318 318 317 318 317 317 317 317 318 318 319 321 326 327 326 326 327 328 327 326 327 328 329 330 330 327 324 324 324 325 326 326 327 329 330 332 333 331 329 329 329 328 329 331 330 328 327 327 326 325 327 331 333 331 329 330
319 318 317 318 318 319 319 319 319 319 318 318 318 318 318 318 318 317 319 322 325 326 327 328 327 325 324 325 327 329 331 331 329 328 326 325 326 327 326 327 329 332 333 334 332 330 329 329 328 328 331 333 332 330 329 327 326 327 331 333 332 330 329
319 318 318 318 319 319 320 320 320 321 321 320 319 320 320 321 321 320 320 320 322 324 326 326 326 325 324 324 324 325 327 329 329 329 330 329 328 328 329 329 330 331 333 334 333 332 331 331 331 330 331 333 335 333 330 327 325 327 330 332 332 330 329
318 319 319 319 319 319 320 320 320 321 321 321 321 322 322 323 323 322 322 323 323 324 325 324 323 324 324 324 323 323 324 325 326 328 329 330 331 330 330 330 329 329 331 332 333 333 332 332 333 333 333 334 335 333 330 328 326 327 329 332 332 329 326
317 318 319 319 319 319 319 320 320 320 320 320 322 323 322 322 322 322 322 323 322 322 322 320 319 320 321 322 322 322 322 323 324 325 326 328 330 331 331 330 329 329 331 332 333 333 333 333 334 335 335 336 336 333 331 330 329 327 328 331 331 328 326
Wind_Speed
19 17 15 13 12 12 12 13 15 17 19 21 22 22 25 27 28 28 27 27 28 30 30 29 30 31 34 34 29 27 28 28 28 26 23 23 25 25 23 23 20 13 9 11 11 10 9 10 13 13 10 9 9 9 8 7 7 7 8 8 8 9 10
20 19 17 15 14 13 13 13 14 16 18 21 22 23 25 28 29 29 30 29 28 29 29 28 28 29 32 34 32 29 28 29 29 27 24 23 23 23 23 24 24 19 15 13 13 12 9 9 12 14 12 11 11 12 11 10 8 8 9 8 9 10 11
20 19 18 17 16 14 15 15 15 15 16 18 21 23 26 28 30 31 30 30 29 29 30 28 27 28 29 31 33 33 31 29 28 27 26 25 25 24 23 24 24 23 21 18 17 16 14 11 11 12 12 11 10 11 12 12 10 10 10 9 11 11 12
18 20 20 20 19 18 18 17 16 15 14 15 18 22 25 26 28 30 31 30 28 28 28 27 26 27 28 27 28 31 32 30 28 27 27 27 28 27 25 25 25 25 26 24 22 20 18 16 13 12 13 11 9 8 10 12 12 11 11 11 12 12 13
16 19 22 23 22 22 22 20 20 21 19 18 19 22 25 25 28 32 35 33 30 27 27 25 25 27 28 27 26 26 29 29 28 28 29 29 29 29 27 25 24 24 25 25 22 20 19 18 14 13 14 12 10 9 9 11 12 13 13 13 13 13 14
16 18 22 24 23 23 23 22 23 23 26 28 26 25 25 25 29 35 38 35 31 28 26 25 25 27 28 28 27 26 27 29 30 29 30 30 29 28 26 24 23 23 24 23 20 20 20 17 15 14 14 13 14 14 12 12 12 13 14 14 14 14 16
17 17 20 22 22 22 21 23 24 25 29 34 33 30 28 29 33 35 35 33 31 29 27 26 25 26 28 28 27 26 27 30 32 32 31 30 28 27 25 23 22 23 23 23 21 20 20 19 18 17 14 13 16 16 14 12 11 12 16 17 15 14 16
19 18 19 20 22 23 23 24 26 27 30 36 40 38 33 31 32 31 29 28 28 29 29 28 26 26 28 29 28 26 27 29 32 34 34 32 30 29 27 24 24 24 23 23 22 22 22 20 19 19 16 14 16 15 13 13 11 11 13 15 16 16 18
20 20 21 21 23 26 27 26 27 28 30 34 39 39 33 29 29 26 25 25 25 27 29 31 29 28 27 29 30 29 28 28 31 33 34 35 33 32 30 27 25 25 24 24 23 23 24 23 22 20 19 18 16 15 14 15 14 12 12 13 15 17 19
20 20 21 23 24 27 29 29 28 29 30 31 34 34 33 34 33 29 26 26 26 26 28 30 31 30 28 29 30 31 30 29 30 32 32 34 35 34 33 31 29 27 25 24 24 24 23 24 24 22 21 21 19 17 17 17 17 16 15 16 15 16 19
20 20 21 23 25 27 30 32 31 31 31 31 30 30 32 35 37 35 31 28 28 27 27 29 30 30 29 28 28 30 32 30 30 31 31 32 33 34 34 34 33 31 28 26 26 25 24 24 25 24 22 23 22 20 19 17 17 16 17 20 19 16 19
20 20 20 22 24 27 30 33 34 32 31 31 31 29 30 33 35 36 35 32 30 30 29 29 30 30 30 29 29 29 31 32 32 32 32 32 32 32 33 34 35 35 32 29 26 26 26 25 25 25 25 24 23 23 22 18 16 15 17 22 22 19 21
22 21 21 21 23 25 28 32 35 35 31 30 31 30 31 33 34 35 36 35 33 31 31 31 31 29 29 30 30 30 31 32 33 33 33 32 31 31 32 32 34 35 35 33 30 28 28 28 27 27 27 26 24 24 24 22 20 17 16 20 21 20 23
22 23 24 24 23 24 26 29 33 37 35 31 30 30 32 33 33 34 36 37 36 34 32 32 32 29 29 31 31 31 32 32 33 34 33 32 31 31 31 32 33 34 35 35 33 31 30 29 30 29 29 28 27 26 25 25 24 20 16 19 20 19 23
21 22 25 26 26 26 26 27 29 33 37 36 32 31 32 34 34 35 36 37 38 38 34 32 32 30 30 31 32 32 34 34 33 33 33 34 33 32 32 32 32 33 33 34 34 34 32 31 31 31 31 31 30 29 27 27 28 25 20 20 20 21 25
24 23 24 26 28 27 27 28 29 30 34 37 37 35 33 33 34 35 36 36 37 39 38 35 33 32 31 31 32 32 35 36 35 33 33 35 35 34 33 33 32 32 31 31 33 34 33 32 31 31 32 32 32 30 28 28 29 28 25 23 22 23 27
25 25 26 26 27 28 28 28 28 30 31 33 37 38 36 33 33 35 37 37 36 37 40 39 36 34 32 31 32 32 33 35 37 36 34 34 34 34 35 35 34 32 31 30 31 32 33 33 31 31 32 32 32 31 29 29 31 30 28 27 25 26 29
25 27 28 28 28 28 29 29 28 30 31 31 34 37 38 36 35 36 38 37 35 34 38 40 38 36 34 32 32 32 32 34 36 37 36 35 34 33 34 36 36 35 33 31 30 31 32 33 33 32 31 32 31 30 30 31 31 31 30 29 28 27 28
25 27 28 29 29 29 30 31 30 30 31 32 32 34 37 39 38 38 38 37 36 35 37 37 37 36 35 34 33 33 32 33 35 38 38 37 36 34 34 35 35 35 35 34 32 31 32 33 33 32 31 31 30 30 30 32 32 32 31 30 29 28 30
26 27 28 28 29 30 30 31 32 31 31 32 33 34 35 38 40 39 39 39 38 37 36 35 35 34 34 35 35 34 32 31 34 37 39 39 39 38 36 34 34 34 35 35 34 33 33 33 33 33 32 31 30 29 30 32 33 33 33 31 28 28 30
27 28 29 28 28 30 30 30 31 32 32 32 34 35 35 36 39 40 39 38 39 39 38 37 36 36 35 35 36 35 33 32 32 34 37 39 40 40 39 37 35 34 34 35 35 34 35 34 33 34 33 32 31 31 30 32 33 34 34 34 31 28 29
29 30 30 29 29 30 31 31 31 31 32 33 34 35 35 35 37 39 40 39 40 41 40 39 39 38 37 37 37 36 34 32 33 33 34 36 39 42 42 41 40 38 37 37 37 37 36 36 36 35 34 33 33 33 32 33 34 34 35 36 34 30 29
29 29 29 30 30 31 31 32 32 32 32 33 33 35 36 36 36 38 40 40 41 41 42 42 40 39 38 38 38 37 35 33 33 32 32 34 37 42 44 44 43 42 42 41 41 40 39 39 39 37 35 34 34 36 35 34 35 36 36 36 37 35 33
30 30 30 30 30 31 32 32 32 33 33 33 33 33 35 36 37 38 39 41 42 42 43 44 42 40 39 39 38 38 37 36 34 33 32 33 35 40 44 46 44 43 43 44 44 44 42 41 41 40 37 36 35 36 38 37 37 38 37 37 38 38 38
30 31 32 31 31 31 32 33 34 34 33 33 32 33 34 35 36 37 39 41 42 43 43 44 44 41 40 40 40 39 38 38 36 34 33 33 34 37 41 44 45 44 44 44 45 46 44 42 42 41 39 37 36 36 38 40 41 40 39 38 37 38 40
29 29 30 31 31 29 29 32 34 35 34 33 33 33 35 35 36 38 39 41 42 43 44 44 46 45 40 38 40 40 38 38 39 37 34 32 32 35 37 41 44 47 47 45 44 44 44 43 42 41 40 38 37 37 38 40 42 42 39 38 38 38 40
28 27 27 29 28 28 28 30 33 34 34 33 34 35 35 36 36 38 40 40 40 42 44 45 46 48 45 38 37 40 40 38 38 39 36 34 34 34 36 38 43 47 48 46 44 43 43 44 43 43 42 41 39 39 40 41 42 43 41 38 37 38 39
27 24 23 26 27 28 28 29 31 33 33 33 34 35 36 37 38 39 41 41 40 40 42 44 44 46 47 41 34 34 37 35 36 37 37 36 36 36 37 39 42 46 47 47 45 44 43 44 44 44 44 44 42 41 42 42 42 42 43 41 39 38 38
23 20 20 23 26 26 26 28 30 31 32 33 34 34 35 37 38 38 40 41 40 40 40 42 42 43 45 41 34 31 34 36 36 38 38 37 37 38 39 40 42 45 47 47 45 44 44 44 43 44 44 45 45 43 43 43 43 43 45 46 44 41 38
20 19 19 20 22 23 24 26 28 29 31 33 33 34 35 37 37 36 37 38 38 38 38 39 39 41 43 41 35 32 36 39 40 39 39 38 38 38 40 42 43 43 45 47 46 46 46 45 45 45 44 44 44 44 42 42 44 47 48 49 49 46 42
19 17 19 19 20 22 24 25 26 27 28 30 30 29 31 32 32 32 34 35 35 35 35 35 36 39 42 43 40 37 37 40 42 40 40 40 39 39 40 42 43 43 43 45 45 45 46 45 45 46 46 44 43 44 43 40 43 49 52 51 51 51 49
21 17 18 19 20 21 24 24 24 25 27 27 25 24 25 27 28 28 30 31 32 34 35 35 34 35 38 41 43 42 40 40 42 41 40 41 40 40 41 41 40 41 43 44 44 44 44 44 45 45 45 45 45 46 44 41 41 46 51 53 53 53 53
23 20 18 18 20 21 22 22 21 22 24 25 24 23 23 25 27 28 27 26 28 32 35 36 34 33 34 35 37 39 40 41 43 42 41 41 40 39 40 40 38 39 41 42 44 44 44 44 45 45 45 47 48 48 45 42 42 43 46 50 52 51 52
23 23 19 16 16 16 17 19 19 19 20 21 21 20 20 23 25 26 27 26 27 28 30 33 34 34 35 35 34 35 36 38 40 41 40 40 40 38 38 38 37 38 40 42 43 45 45 44 44 45 46 48 48 47 44 42 42 42 43 47 48 48 48
22 21 19 18 18 15 12 11 11 12 15 17 17 17 18 19 17 18 20 23 25 26 28 31 33 34 35 36 36 35 35 36 37 36 35 35 36 37 36 35 34 36 39 41 43 46 47 45 43 45 48 49 47 45 44 42 41 42 44 46 45 43 43
21 19 16 17 19 18 16 17 16 12 10 11 12 14 16 16 14 12 14 17 20 23 25 27 29 31 34 37 37 36 37 38 38 36 32 30 31 31 32 32 32 34 36 38 41 44 47 47 46 46 48 50 48 45 44 43 42 42 44 45 43 40 38
19 17 14 14 15 15 15 17 19 17 14 11 7 5 7 9 9 9 12 15 18 20 19 18 19 23 29 34 35 34 35 38 40 38 34 32 31 29 29 30 31 32 35 37 38 40 43 45 46 46 48 50 49 47 45 44 44 44 45 46 45 40 37
Wind_Direction
253 253 248 239 231 223 214 213 217 221 221 220 221 223 227 230 229 230 227 223 225 229 230 227 223 224 221 214 215 219 219 219 215 208 210 217 222 222 210 204 210 205 183 186 194 193 191 192 187 198 224 223 218 230 233 233 235 229 218 212 211 208 208
257 253 251 249 243 233 223 215 213 222 225 222 220 221 226 228 227 232 236 229 223 225 229 229 224 223 222 216 212 214 216 217 218 213 212 217 224 226 215 207 208 204 192 187 193 199 197 194 194 201 208 205 213 228 230 230 230 227 221 212 216 216 210
264 262 255 253 252 247 242 230 216 215 222 224 225 226 227 227 225 228 234 232 225 223 227 229 227 223 223 222 216 214 216 217 218 217 216 219 224 227 223 216 212 211 210 204 202 209 211 211 214 211 209 209 220 229 228 230 229 222 221 218 218 218 212
257 264 264 262 261 263 263 255 243 238 232 226 228 230 230 229 226 224 226 228 225 224 227 228 228 226 224 226 224 220 220 220 221 220 219 222 225 227 229 230 228 225 224 222 219 223 224 224 226 218 218 228 236 237 228 226 228 223 221 221 219 216 212
251 256 265 267 266 268 267 259 253 254 255 249 241 236 232 229 228 225 223 222 220 222 229 230 227 227 226 226 227 225 222 220 221 221 221 224 226 229 232 235 237 232 230 229 224 225 226 222 219 216 222 228 220 221 221 217 221 221 221 223 221 216 212
260 252 258 261 260 262 260 256 250 246 250 254 249 243 240 235 232 231 227 223 218 219 230 235 229 225 225 226 228 228 222 216 216 219 221 224 226 229 232 233 233 229 226 225 220 223 226 219 213 212 221 224 209 205 212 217 223 219 218 222 220 217 213
268 255 250 249 247 247 246 246 246 241 246 250 246 242 241 236 231 230 230 228 223 220 227 236 235 226 221 222 226 229 225 218 216 217 219 223 225 226 228 227 225 223 221 220 219 222 225 220 211 203 205 211 202 202 211 217 226 225 218 217 216 218 214
270 261 251 242 236 238 239 240 239 236 242 245 240 235 233 229 226 225 228 231 230 227 229 235 238 233 224 219 220 226 229 224 220 220 220 221 222 221 223 222 222 222 220 218 218 219 221 221 213 204 201 198 190 195 209 212 220 231 227 217 212 217 216
268 263 256 245 233 231 236 241 241 237 237 239 236 232 230 231 232 230 228 232 235 233 234 236 238 237 232 226 221 222 228 229 226 225 223 223 223 221 221 221 222 224 222 219 217 218 220 220 217 213 211 209 199 195 202 207 210 220 229 221 209 213 219
272 265 258 252 241 232 230 235 240 238 237 239 238 235 233 236 240 239 235 235 237 235 235 237 237 237 236 233 228 223 223 227 229 229 228 227 227 225 222 222 223 225 225 222 218 218 221 220 219 219 217 218 216 206 204 210 214 214 218 222 217 212 216
277 268 260 256 250 240 233 231 234 236 237 239 241 238 234 235 238 240 240 237 236 236 236 237 236 236 236 236 235 229 223 222 226 228 229 229 230 228 226 225 226 226 226 224 221 220 221 222 220 218 218 221 222 218 217 219 222 220 212 216 221 217 215
276 271 264 259 255 249 241 235 233 235 236 237 238 236 234 233 234 236 237 236 235 236 237 237 236 236 236 236 237 234 227 222 223 226 228 229 230 230 229 229 228 228 227 224 224 223 222 223 222 218 217 221 224 224 226 225 225 226 219 218 220 216 217
274 271 266 260 256 253 248 242 237 236 237 238 238 237 235 233 231 231 233 233 233 233 233 236 236 235 235 234 235 235 231 226 223 224 227 229 230 230 230 230 229 230 228 224 224 225 224 223 224 222 219 221 224 225 228 228 226 230 230 228 225 214 216
275 273 270 264 257 253 249 245 241 239 239 240 240 239 238 235 230 229 231 232 232 232 233 235 235 233 232 232 233 234 233 230 225 224 225 227 229 229 229 230 230 230 229 226 225 226 227 226 226 227 226 224 224 224 227 229 228 229 227 223 225 216 216
270 270 272 270 264 257 251 247 244 242 241 240 240 240 240 238 232 228 229 232 234 234 234 234 233 231 231 231 232 233 232 231 228 226 225 225 227 228 228 229 230 230 229 228 227 226 227 228 228 229 229 229 228 224 225 228 227 227 221 216 218 214 215
269 264 267 269 269 266 260 252 247 244 243 241 240 240 241 241 237 232 229 230 233 235 233 233 233 232 232 232 233 234 233 231 229 227 225 225 225 226 228 229 228 229 228 228 229 227 227 229 229 229 229 231 233 228 224 228 229 225 220 216 216 213 213
273 267 265 264 265 268 266 261 253 247 244 242 240 240 241 241 239 237 234 230 231 234 233 231 232 233 233 233 234 235 234 232 230 227 224 223 224 225 228 229 227 227 227 226 229 228 226 227 229 229 228 230 235 231 223 226 230 226 220 219 218 218 219
275 272 269 264 262 263 265 264 260 253 246 242 241 240 240 241 239 239 238 233 231 234 233 231 231 232 233 233 233 235 235 233 231 228 224 222 223 225 227 229 229 227 226 226 228 227 225 225 225 228 229 229 233 231 221 223 230 226 221 220 220 220 223
272 270 269 266 262 261 261 262 261 256 250 244 241 240 239 240 240 240 239 237 234 232 232 231 230 230 231 232 232 233 234 234 232 230 228 225 222 222 224 228 230 230 227 225 225 225 224 222 223 226 228 229 230 228 220 221 228 226 220 220 223 221 221
273 269 268 266 264 260 258 259 259 257 253 247 243 241 239 238 238 239 240 240 236 232 230 229 228 226 227 229 230 231 232 233 233 232 232 230 225 222 222 224 229 232 231 229 226 224 223 222 223 224 226 228 229 227 223 222 226 226 220 217 220 222 222
278 274 270 267 265 262 258 256 256 256 253 249 244 241 240 240 238 237 238 240 238 234 230 227 226 224 224 226 229 232 232 233 234 234 235 233 229 226 225 224 226 229 231 231 228 224 223 224 224 224 225 228 228 228 227 225 225 226 222 217 216 219 222
279 278 274 269 266 264 260 255 254 254 253 250 247 243 240 240 239 237 236 236 238 237 233 228 226 224 223 225 228 232 233 234 234 235 237 236 231 229 228 226 226 226 227 230 229 225 223 222 222 222 223 226 228 229 229 228 226 226 223 219 216 215 219
281 278 275 271 265 262 261 258 254 253 252 250 248 246 242 239 239 239 238 236 236 236 234 230 228 227 225 225 228 231 233 234 234 235 237 237 233 231 232 231 229 228 227 229 230 229 228 225 223 221 220 222 227 230 230 230 229 227 224 222 218 213 214
287 283 279 273 265 260 258 257 255 252 251 250 249 247 245 242 239 239 239 237 235 235 234 231 229 228 227 226 227 229 231 233 235 236 236 236 235 234 234 235 234 233 232 231 231 232 232 230 228 226 222 219 222 229 232 231 230 228 225 224 222 216 215
288 286 281 271 262 258 255 253 254 252 250 249 249 248 246 244 241 239 239 239 236 235 235 232 228 226 226 226 227 228 229 231 234 237 236 236 236 236 237 237 237 238 238 237 235 234 234 233 232 232 228 220 217 224 232 234 234 231 226 224 225 221 219
289 287 282 272 260 254 252 251 250 250 250 249 248 248 247 245 243 240 239 240 237 235 234 231 229 228 228 229 229 228 228 230 233 237 238 237 238 240 240 240 239 239 241 240 238 236 235 235 234 234 232 226 219 219 226 233 237 237 231 227 226 227 226
293 287 283 277 263 250 247 249 249 248 249 249 247 247 245 244 244 241 240 240 238 235 233 231 230 231 232 235 235 229 227 229 233 237 240 240 241 242 242 243 242 241 241 240 238 235 235 235 235 235 234 230 225 221 223 228 233 236 236 231 228 230 232
297 288 281 278 272 260 248 246 248 247 247 248 249 248 246 244 243 242 241 242 241 240 236 232 231 231 231 236 240 232 227 229 233 238 242 244 244 243 243 245 245 243 242 241 239 237 236 236 236 236 235 232 229 227 227 230 233 236 238 236 232 231 233
300 289 282 275 276 271 256 248 250 250 248 249 251 252 249 246 244 244 244 244 244 243 239 234 232 231 230 235 238 233 232 234 235 238 243 245 245 243 242 245 247 245 243 242 240 238 237 237 236 236 235 232 230 229 231 235 238 237 237 238 236 233 233
309 294 288 277 269 267 260 252 252 252 251 252 255 256 254 251 248 246 246 247 246 244 242 237 234 230 229 231 230 228 233 237 238 238 242 244 244 245 244 245 247 247 244 243 242 241 239 238 237 237 235 232 231 231 233 238 240 237 234 236 237 235 234
327 304 293 284 270 263 261 255 249 249 252 254 257 258 257 256 252 248 247 249 247 245 243 241 237 233 231 231 231 231 233 237 238 239 241 243 243 244 246 247 248 248 245 243 243 242 240 238 236 235 234 233 232 231 232 237 239 235 233 235 236 235 235
350 326 304 292 276 266 265 262 254 252 254 256 260 263 257 252 249 248 248 248 246 244 240 235 231 230 229 231 234 234 233 236 239 240 240 241 241 242 244 246 249 249 246 243 243 242 240 236 234 234 233 233 232 232 233 234 235 234 234 234 234 234 234
5 353 333 308 287 272 267 266 262 259 258 258 264 268 258 246 243 246 246 242 236 233 231 227 223 224 226 229 233 233 230 233 239 241 240 240 239 240 242 244 247 248 246 244 242 241 241 238 236 234 234 233 233 233 233 233 234 235 235 234 233 233 235
16 11 3 343 320 299 280 272 268 264 261 260 262 263 254 246 245 244 242 239 236 231 228 227 227 229 231 234 240 242 239 237 239 240 241 241 240 240 243 244 244 244 244 242 240 240 242 242 239 237 236 236 236 234 234 235 237 235 234 233 232 231 233
20 19 18 15 7 359 340 318 300 279 270 266 258 249 243 242 242 241 237 234 234 234 231 230 232 234 236 238 242 247 247 246 244 241 240 241 240 239 240 242 243 244 245 244 242 242 242 242 241 239 238 239 237 235 236 238 238 234 232 233 234 232 232
10 14 21 25 24 21 15 11 9 354 323 293 262 243 238 237 235 238 240 235 232 235 236 237 239 240 241 243 243 243 242 244 248 251 249 245 241 238 239 241 243 246 249 247 245 244 243 242 241 239 238 238 237 234 236 238 237 233 232 234 235 233 233
6 8 15 19 20 21 21 24 24 20 14 9 349 298 271 260 253 253 253 247 241 237 236 241 248 246 244 244 243 241 239 240 248 256 256 248 242 240 241 243 243 244 247 249 249 247 244 242 243 240 237 237 236 234 235 237 235 233 233 234 235 234 234